Overview Statistics Trail Chart Weather Telemetry Raw packets
 

This is the latest recevied weather packets stored in our database for station/object OK2ZA-6. If no packets are shown the sender has not sent any weather packets the latest 10 day(s).

<< 30 31 32 33 34 35 36 >>
Time Temp. Humidity Pressure Rain* Wind** Luminosity Snow
1788249004 19.44° C 65% 1020.5 hPa 0 mm - - -
1788248404 18.89° C 65% 1020.4 hPa 0 mm - - -
1788247804 18.89° C 66% 1020.2 hPa 0 mm - - -
1788247204 18.89° C 68% 1020 hPa 0 mm - - -
1788246604 18.33° C 69% 1019.9 hPa 0 mm - - -
1788246005 18.33° C 70% 1020 hPa 0 mm - - -
1788245404 17.78° C 70% 1019.9 hPa 0 mm - - -
1788244804 17.78° C 72% 1019.8 hPa 0 mm - - -
1788244223 17.78° C 72% 1019.8 hPa 0 mm - - -
1788243605 17.22° C 73% 1019.8 hPa 0 mm - - -
1788243004 16.67° C 73% 1019.8 hPa 0 mm - - -
1788242404 16.67° C 74% 1019.8 hPa 0 mm - - -
1788241805 16.67° C 75% 1019.7 hPa 0 mm - - -
1788241204 16.11° C 76% 1019.5 hPa 0 mm - - -
1788240604 16.11° C 76% 1019.4 hPa 0 mm - - -
1788240004 15.56° C 77% 1019.4 hPa 0 mm - - -
1788239404 15.56° C 78% 1019.2 hPa 0 mm - - -
1788238804 15.56° C 78% 1019.2 hPa 0 mm - - -
1788238205 15° C 79% 1019.1 hPa 0 mm - - -
1788237604 15° C 79% 1019.1 hPa 0 mm - - -
1788237004 15° C 78% 1019 hPa 0 mm - - -
1788236404 15° C 78% 1018.9 hPa 0 mm - - -
1788235804 15° C 78% 1018.7 hPa 0 mm - - -
1788235204 15° C 78% 1018.7 hPa 0 mm - - -
1788234604 14.44° C 78% 1018.6 hPa 0 mm - - -

* Rain latest hour (hover to see other rain measurements)
** Current wind speed in m/s (hover to see current wind gust speed)